Location: Aiyekoto
(8.4333°N, 4.3667°E)
Time: 12:57:02
(UTC+00:00)

Cosmos 1605 Rocket - Pass Details

Date: 07 June 2020
Orbit: 944 x 1006 km, 82.9° (Epoch: 07 July)

Event Time Altitude Azimuth Distance (km) Brightness Sun altitude
Exits shadow 04:37:29 - 202° (SSW) 3,320 6.4 -11.2°
Reaches altitude 10° 04:39:11 10° 207° (SSW) 2,722 5.9 -10.8°
Maximum altitude 04:44:56 39° 274° (W) 1,432 4.5 -9.5°
Drops below altitude 10° 04:50:47 10° 342° (NNW) 2,756 6.5 -8.2°
Sets 04:53:30 0° 350° (N) 3,710 7.2 -7.6°
